Regional Weather Roundup
Issued by NWS

Home | Current Version | Previous Version | Text Only | Print | Product List | Glossary On
Versions: 1 2 3 4 5 6 7 8 9 10 11 12 13 14 15 16 17 18 19 20 21 22 23 24 25 26 27 28 29 30 31 32 33 34 35 36 37 38 39 40 41 42 43 44 45 46 47 48 49 50
000
ASUS43 KMKX 012021
RWRWI

WISCONSIN REGIONAL WEATHER ROUNDUP
NATIONAL WEATHER SERVICE MILWAUKEE/SULLIVAN WI
200 PM CST SUN FEB 01 2015

NOTE: "FAIR" INDICATES FEW OR NO CLOUDS BELOW 12,000 FEET WITH NO
SIGNIFICANT WEATHER AND/OR OBSTRUCTIONS TO VISIBILITY.

WIZ001-002-006>008-014>016-023>028-012100-
NORTHWEST WISCONSIN

CITY           SKY/WX    TMP DP  RH WIND       PRES   REMARKS
SUPERIOR ARPT  SUNNY     11  -7  44 NE8       30.34F WCI  -1
ASHLAND        CLOUDY    10   2  69 N17G25    30.30F WCI  -8
HAYWARD        CLOUDY    11   1  64 NE15G23   30.22F WCI  -5
SIREN          MOSUNNY   15   1  53 NE12G20   30.25S WCI   1
CUMBERLAND     CLOUDY    14   1  57 NE16G23   30.18F WCI  -2
RICE LAKE      CLOUDY    15   4  61 N18       30.20F WCI  -2
CHETEK         CLOUDY    16   1  52 N10G21    30.17F WCI   3
LADYSMITH      CLOUDY    14   2  57 NE14G20   30.17F WCI   0
EAU CLAIRE     CLOUDY    14   0  53 N15G24    30.16F WCI  -1
MENOMONIE      CLOUDY    16   1  52 N17       30.18F WCI   0
NEW RICHMOND   CLOUDY    15   4  61 NE16      30.20F WCI   0
OSCEOLA        PTSUNNY   16   5  60 N16G22    30.25F WCI   1
$$

WIZ003>005-009-010-017-018-012100-
NORTH CENTRAL WISCONSIN

CITY           SKY/WX    TMP DP  RH WIND       PRES   REMARKS
MANITOWISH WTR CLOUDY    10  -2  60 N9G16     30.15F WCI  -4
ARBOR VITAE    CLOUDY    11   0  61 NE8G18    30.14F WCI   0
WOODRUFF       CLOUDY    11   0  61 NE8G18    30.14F WCI   0
RHINELANDER    CLOUDY    10  -1  61 NE10      30.12F WCI  -4
EAGLE RIVER    CLOUDY    10  -2  58 NE16G22   30.13F WCI  -7
LAND O LAKES   CLOUDY    10  -1  61 NE13      30.15F WCI  -5
PHILLIPS       MOSUNNY   10   0  62 NE18      30.14F WCI  -8
TOMAHAWK       CLOUDY    11   0  59 N10       30.13F WCI  -2
MEDFORD        CLOUDY    12   0  58 N17       30.09F WCI  -6
MERRILL        CLOUDY    13   0  56 NE15G24   30.11F WCI  -3
$$

WIZ029-030-035-036-043>047-012100-
CENTRAL WISCONSIN

CITY           SKY/WX    TMP DP  RH WIND       PRES   REMARKS
WAUSAU         CLOUDY    13   0  56 NE12G21   30.09F WCI  -1
MOSINEE        MOSUNNY   12   3  67 NE15      30.10F WCI  -4
MARSHFIELD     CLOUDY    13   2  61 NE15      30.08F WCI  -3
STEVENS POINT  CLOUDY    10  -1  60 NE20      30.09F WCI  -8
WAUPACA        CLOUDY    13  -2  51 N17G26    30.11F WCI  -4
WAUTOMA        LGT SNOW  10   3  72 NE13G26   30.07F WCI  -5
WISC RAPIDS    LGT SNOW  12   1  61 NE14G25   30.10F WCI  -3
CAMP DOUGLAS   LGT SNOW  12   9  85 NE10G25   30.07F BLWGSNOWWCI  -1
$$

WIZ011>013-019>022-031-037>040-048>050-012100-
NORTHEAST WISCONSIN

CITY           SKY/WX    TMP DP  RH WIND       PRES   REMARKS
ANTIGO         CLOUDY    10   1  68 NE17      30.09F WCI  -8
SHAWANO        CLOUDY    13   1  57 NE13G22   30.15F WCI  -1
OCONTO         CLOUDY     9  -8  47 NE20G29   30.18F WCI -11
STURGEON BAY   CLOUDY    10   1  67 N20G25    30.16S WCI  -8
GREEN BAY      MIX PCPN   9   2  73 NE28G37   30.13F WCI -13
MANITOWOC      LGT SNOW  18  14  86 NE14G28   30.06S VSB 3/4 WCI   4
APPLETON       LGT SNOW  12   3  67 NE23G30   30.08F WCI  -7
CLINTONVILLE   CLOUDY    12   0  57 NE18      30.13F WCI  -5
OSHKOSH        SNOW      10   5  80 NE25G39   30.05F VSB 1/2 WCI -11
$$

WIZ032>034-041-042-053>061-012100-
SOUTHWEST WISCONSIN

CITY           SKY/WX    TMP DP  RH WIND       PRES   REMARKS
LA CROSSE      LGT SNOW  17   8  67 N17       30.09F WCI   1
SPARTA         LGT SNOW  15   8  73 NE15G24   30.09S WCI  -1
VIROQUA        CLOUDY    14   9  79 NE22G29   29.99F WCI  -4
BOSCOBEL       LGT SNOW  17  11  77 NE8G20    30.00S VSB 1   WCI   7
PRAIRIE DU CHI MIX PCPN  17  10  73 N15G24    29.99F WCI   3
PLATTEVILLE    CLOUDY    16  13  88 N28G35    29.88S VSB 1/4 WCI  -3
$$

WIZ056-057-062-063-064-067-068-012100-
SOUTH CENTRAL WISCONSIN

CITY           SKY/WX    TMP DP  RH WIND       PRES   REMARKS
REEDSBURG      LGT SNOW  14   9  80 NE14G22   30.01S WCI  -1
BARABOO/DELLS  LGT SNOW  13   8  82 NE20G26   30.00F WCI  -5
LONE ROCK      SNOW      15   9  76 NE20G30   29.99S VSB 1/2 WCI  -2
MINERAL POINT  SNOW      18  12  79 NE22G33   29.89R VSB 1/2 WCI   0
MADISON        SNOW      13   9  84 NE30G37   29.94F VSB 1/2 WCI  -8
MIDDLETON      CLOUDY    15  11  82 NE28G36   29.95F VSB 1/2 WCI  -4
WATERTOWN      LGT SNOW  15  12  88 N14G21    29.93F VSB 1   WCI   0
MONROE         LGT SNOW  18  14  86 N29G36    29.84F WCI  -2
JANESVILLE     LGT SNOW  25  19  80 NE20G25   29.86F VSB 1   WCI  11
$$

WIZ051-052-058>065-066-070>072-012100-
SOUTHEAST WISCONSIN

CITY           SKY/WX    TMP DP  RH WIND       PRES   REMARKS
MILWAUKEE      SNOW      22  17  81 NE24G36   29.92S VSB 1/2 WCI   5
WAUKESHA       LGT SNOW  19  16  86 NE12G35   29.91F VSB 1   WCI   7
MILWAUKEE/TIMM LGT SNOW  21  18  86 NE24G31   29.93F VSB 1   WCI   4
RACINE         HVY SNOW  22  17  81 NE28G37   29.91R VSB 1/4 WCI   4
BURLINGTON     LGT SNOW  21  18  86 NE15G26   29.88R WCI   8
KENOSHA        HVY SNOW  22  19  89 NE23G38   29.87S VSB 1/4 WCI   6
FOND DU LAC    HAZE      10   5  80 N26G36    30.03F VSB 3/4 WCI -11
SHEBOYGAN      HVY SNOW  18  15  88 NE28G35   30.00F VSB 1/4 WCI  -1
WEST BEND      LGT SNOW  19  14  79 NE21G29   29.95F WCI   3
JUNEAU         LGT SNOW  10   6  84 N21G30    29.97F VSB 1   WCI  -9
$$

LSZ147-162-012100-
LAKE SUPERIOR

STATION/POSITION TIME  TEMP    WIND        PRES    WAVE
                       AIR SEA DIR/SP/G            HT/PER
                 (UTC) (F)     (DEG/KT/KT) (MB)    (FT/S)
DEVILS ISLAND    2000    9      30/ 15/ 18 1028.9F
PORT WING        1940   12      50/ 14/ 19 1027.1F
SAXON HARBOR     1940   15      30/ 20/ 23 1025.4F
$$

LMZ867-665-643>646-012100-
LAKE MICHIGAN

STATION/POSITION TIME  TEMP    WIND        PRES    WAVE
                       AIR SEA DIR/SP/G            HT/PER
                 (UTC) (F)     (DEG/KT/KT) (MB)    (FT/S)
NORTHPORT PIER   1900    9      30/ 19/ 24 1023.7F
SISTER BAY       1928   10     360/ 17/ 25   N/A
KEWAUNEE LAKESHO 2000   17      40/ 29/ 33 1018.6F
SHEBOYGAN LAKESH 2000   20      40/ 31/ 35 1017.1F
PORT WASHINGTON  1920   23      50/ 25     1015.9F
MILWAUKEE LAKESH 2000   23      40/ 31/ 36   N/A
KENOSHA   LAKESH 2000   22      50/ 30/ 38 1011.9S
$$

TC  - TEMPERATURE IN CELSIUS
VSB - VISIBILITY IN STATUTE MILES
WCI - WIND CHILL INDEX
HX  - HEAT INDEX



USA.gov is the U.S. government's official web portal to all federal, state and local government web resources and services.